| time (UTC) | temp F | wind direction | speed MPH | gust MPH | rain 1hr in | rain 24hr in | rain mn in | humidity % | barometer mb |
| 20260906113016 | 77 | 190 | 0.0 | 0.0 | 0.00 | 0.00 | 0.00 | 56 | 987.4 |
| 20260906111511 | 78 | 190 | 0.0 | 0.0 | 0.00 | 0.00 | 0.00 | 58 | 987.3 |
| 20260906110008 | 78 | 190 | 0.0 | 0.0 | 0.00 | 0.00 | 0.00 | 60 | 987.1 |
| 20260906104507 | 78 | 190 | 0.0 | 0.0 | 0.00 | 0.00 | 0.00 | 62 | 987.0 |
| 20260906103102 | 79 | 190 | 0.0 | 0.0 | 0.00 | 0.00 | 0.00 | 63 | 987.0 |
| 20260906101547 | 79 | 190 | 0.0 | 0.0 | 0.00 | 0.00 | 0.00 | 63 | 987.0 |
| 20260906100031 | 79 | 190 | 1.0 | 2.0 | 0.00 | 0.00 | 0.00 | 63 | 986.9 |
| 20260906094526 | 80 | 190 | 1.0 | 4.0 | 0.00 | 0.00 | 0.00 | 63 | 986.9 |
| 20260906093021 | 80 | 190 | 3.0 | 5.0 | 0.00 | 0.00 | 0.00 | 63 | 986.8 |
| 20260906091512 | 80 | 190 | 2.0 | 5.0 | 0.00 | 0.00 | 0.00 | 64 | 986.7 |
| 20260906090032 | 80 | 188 | 3.0 | 4.0 | 0.00 | 0.00 | 0.00 | 64 | 986.6 |
| 20260906084509 | 80 | 187 | 3.0 | 5.0 | 0.00 | 0.00 | 0.00 | 64 | 986.7 |
| 20260906083009 | 80 | 179 | 4.0 | 6.0 | 0.00 | 0.00 | 0.00 | 65 | 986.9 |
| 20260906081511 | 80 | 197 | 3.0 | 6.0 | 0.00 | 0.00 | 0.00 | 64 | 986.8 |
| 20260906080008 | 80 | 194 | 3.0 | 6.0 | 0.00 | 0.00 | 0.00 | 65 | 986.9 |
| 20260906074507 | 81 | 194 | 4.0 | 7.0 | 0.00 | 0.00 | 0.00 | 65 | 987.1 |
| 20260906073109 | 81 | 193 | 4.0 | 7.0 | 0.00 | 0.00 | 0.00 | 65 | 987.2 |
| 20260906071555 | 81 | 185 | 5.0 | 7.0 | 0.00 | 0.00 | 0.00 | 65 | 987.5 |
| 20260906070055 | 81 | 202 | 6.0 | 8.0 | 0.00 | 0.00 | 0.00 | 66 | 987.5 |
| 20260906064554 | 81 | 196 | 6.0 | 9.0 | 0.00 | 0.00 | 0.00 | 66 | 987.6 |
| 20260906063053 | 81 | 194 | 4.0 | 8.0 | 0.00 | 0.00 | 0.00 | 67 | 987.9 |
| 20260906061553 | 82 | 189 | 5.0 | 9.0 | 0.00 | 0.00 | 0.00 | 67 | 987.8 |
| 20260906060052 | 82 | 192 | 4.0 | 7.0 | 0.00 | 0.00 | 0.00 | 67 | 987.9 |
| 20260906054552 | 82 | 192 | 4.0 | 7.0 | 0.00 | 0.00 | 0.00 | 67 | 987.8 |
| 20260906053052 | 82 | 185 | 5.0 | 8.0 | 0.00 | 0.00 | 0.00 | 67 | 988.0 |
| 20260906051551 | 83 | 194 | 5.0 | 8.0 | 0.00 | 0.00 | 0.00 | 67 | 987.8 |
| 20260906050040 | 83 | 202 | 6.0 | 10.0 | 0.00 | 0.00 | 0.00 | 67 | 987.9 |
| 20260906044515 | 83 | 194 | 8.0 | 11.0 | 0.00 | 0.00 | 0.00 | 67 | 987.9 |
| 20260906043017 | 83 | 170 | 7.0 | 10.0 | 0.00 | 0.00 | 0.00 | 67 | 987.9 |
| 20260906041603 | 83 | 153 | 5.0 | 10.0 | 0.00 | 0.00 | 0.00 | 67 | 988.0 |
| 20260906040057 | 84 | 155 | 8.0 | 11.0 | 0.00 | 0.00 | 0.00 | 67 | 987.8 |
| 20260906034550 | 84 | 154 | 6.0 | 12.0 | 0.00 | 0.00 | 0.00 | 66 | 987.9 |
| 20260906033038 | 84 | 142 | 6.0 | 11.0 | 0.00 | 0.00 | 0.00 | 66 | 987.9 |
| 20260906031529 | 85 | 148 | 5.0 | 12.0 | 0.00 | 0.00 | 0.00 | 65 | 987.8 |
| 20260906030021 | 85 | 142 | 7.0 | 13.0 | 0.00 | 0.00 | 0.00 | 65 | 987.6 |
| 20260906024609 | 86 | 144 | 8.0 | 14.0 | 0.00 | 0.00 | 0.00 | 63 | 987.4 |
| 20260906023007 | 86 | 135 | 8.0 | 15.0 | 0.00 | 0.00 | 0.00 | 63 | 987.0 |
| 20260906021507 | 87 | 142 | 9.0 | 14.0 | 0.00 | 0.00 | 0.00 | 60 | 986.7 |
| 20260906020006 | 88 | 130 | 9.0 | 14.0 | 0.00 | 0.00 | 0.00 | 56 | 986.3 |
| 20260906014505 | 89 | 118 | 7.0 | 12.0 | 0.00 | 0.00 | 0.00 | 54 | 986.2 |
| 20260906013004 | 89 | 121 | 5.0 | 12.0 | 0.00 | 0.00 | 0.00 | 53 | 986.1 |
| 20260906011504 | 90 | 127 | 7.0 | 13.0 | 0.00 | 0.00 | 0.00 | 53 | 985.9 |
| 20260906010003 | 91 | 119 | 6.0 | 16.0 | 0.00 | 0.00 | 0.00 | 52 | 985.7 |
| 20260906004554 | 92 | 129 | 8.0 | 16.0 | 0.00 | 0.00 | 0.00 | 48 | 985.9 |
| 20260906003049 | 93 | 119 | 8.0 | 12.0 | 0.00 | 0.00 | 0.00 | 48 | 985.7 |
| 20260906001647 | 94 | 144 | 9.0 | 13.0 | 0.00 | 0.00 | 0.00 | 47 | 985.6 |
| 20260906000052 | 95 | 121 | 6.0 | 14.0 | 0.00 | 0.00 | 0.00 | 47 | 985.6 |
| 20260905234550 | 96 | 140 | 9.0 | 15.0 | 0.00 | 0.00 | 0.00 | 46 | 985.6 |
| 20260905233046 | 96 | 114 | 6.0 | 16.0 | 0.00 | 0.00 | 0.00 | 45 | 985.4 |
| 20260905231544 | 96 | 56 | 6.0 | 15.0 | 0.00 | 0.00 | 0.00 | 45 | 985.3 |
| 20260905230044 | 96 | 94 | 6.0 | 13.0 | 0.00 | 0.00 | 0.00 | 45 | 985.3 |
| 20260905224530 | 96 | 106 | 8.0 | 14.0 | 0.00 | 0.00 | 0.00 | 46 | 985.3 |
| 20260905223029 | 96 | 110 | 6.0 | 15.0 | 0.00 | 0.00 | 0.00 | 45 | 985.4 |
| 20260905221528 | 97 | 86 | 5.0 | 12.0 | 0.00 | 0.00 | 0.00 | 42 | 985.2 |
| 20260905220030 | 97 | 86 | 2.0 | 7.0 | 0.00 | 0.00 | 0.00 | 39 | 985.3 |
| 20260905214529 | 98 | 110 | 4.0 | 10.0 | 0.00 | 0.00 | 0.00 | 38 | 985.3 |
| 20260905213024 | 98 | 103 | 5.0 | 9.0 | 0.00 | 0.00 | 0.00 | 38 | 985.5 |
| 20260905211522 | 98 | 80 | 6.0 | 12.0 | 0.00 | 0.00 | 0.00 | 38 | 985.6 |
| 20260905210034 | 98 | 100 | 3.0 | 8.0 | 0.00 | 0.00 | 0.00 | 40 | 985.9 |
| 20260905204504 | 97 | 234 | 7.0 | 10.0 | 0.00 | 0.00 | 0.00 | 40 | 986.1 |
| 20260905203002 | 97 | 193 | 7.0 | 11.0 | 0.00 | 0.00 | 0.00 | 40 | 986.4 |
| 20260905201600 | 96 | 262 | 1.0 | 11.0 | 0.00 | 0.00 | 0.00 | 42 | 986.5 |
| 20260905200105 | 96 | 139 | 6.0 | 13.0 | 0.00 | 0.00 | 0.00 | 42 | 986.6 |
| 20260905194553 | 95 | 219 | 2.0 | 13.0 | 0.00 | 0.00 | 0.00 | 44 | 986.9 |
| 20260905193050 | 94 | 114 | 3.0 | 11.0 | 0.00 | 0.00 | 0.00 | 46 | 987.2 |
| 20260905191548 | 95 | 195 | 5.0 | 10.0 | 0.00 | 0.00 | 0.00 | 45 | 987.5 |
| 20260905190047 | 94 | 189 | 5.0 | 10.0 | 0.00 | 0.00 | 0.00 | 48 | 987.8 |
| 20260905184528 | 94 | 152 | 8.0 | 12.0 | 0.00 | 0.00 | 0.00 | 48 | 988.0 |
| 20260905183025 | 94 | 211 | 4.0 | 11.0 | 0.00 | 0.00 | 0.00 | 49 | 988.2 |
| 20260905181522 | 93 | 209 | 4.0 | 9.0 | 0.00 | 0.00 | 0.00 | 47 | 988.6 |
| 20260905180019 | 92 | 221 | 7.0 | 12.0 | 0.00 | 0.00 | 0.00 | 51 | 988.9 |
| 20260905174522 | 93 | 205 | 8.0 | 13.0 | 0.00 | 0.00 | 0.00 | 48 | 989.0 |
| 20260905173015 | 91 | 205 | 9.0 | 14.0 | 0.00 | 0.00 | 0.00 | 53 | 989.2 |
| 20260905171526 | 90 | 195 | 2.0 | 9.0 | 0.00 | 0.00 | 0.00 | 57 | 989.4 |
| 20260905170015 | 90 | 180 | 6.0 | 12.0 | 0.00 | 0.00 | 0.00 | 56 | 989.7 |
| 20260905164511 | 89 | 248 | 6.0 | 12.0 | 0.00 | 0.00 | 0.00 | 57 | 989.6 |
| 20260905163010 | 89 | 205 | 9.0 | 18.0 | 0.00 | 0.00 | 0.00 | 60 | 989.7 |
| 20260905161511 | 88 | 228 | 8.0 | 11.0 | 0.00 | 0.00 | 0.00 | 60 | 989.7 |
| 20260905160008 | 87 | 222 | 7.0 | 11.0 | 0.00 | 0.00 | 0.00 | 62 | 989.6 |
| 20260905154505 | 87 | 197 | 8.0 | 12.0 | 0.00 | 0.00 | 0.00 | 64 | 989.6 |
| 20260905153002 | 86 | 194 | 8.0 | 12.0 | 0.00 | 0.00 | 0.00 | 66 | 989.5 |
| 20260905151544 | 86 | 217 | 5.0 | 11.0 | 0.00 | 0.00 | 0.00 | 66 | 989.6 |
| 20260905150047 | 85 | 259 | 4.0 | 10.0 | 0.00 | 0.00 | 0.00 | 65 | 989.6 |
| 20260905144539 | 83 | 259 | 4.0 | 9.0 | 0.00 | 0.00 | 0.00 | 61 | 989.7 |
| 20260905143033 | 81 | 187 | 6.0 | 10.0 | 0.00 | 0.00 | 0.00 | 49 | 989.6 |
| 20260905141533 | 80 | 218 | 2.0 | 5.0 | 0.00 | 0.00 | 0.00 | 36 | 989.7 |
| 20260905140028 | 79 | 194 | 4.0 | 6.0 | 0.00 | 0.00 | 0.00 | 31 | 989.6 |
| 20260905134525 | 77 | 195 | 1.0 | 4.0 | 0.00 | 0.00 | 0.00 | 26 | 989.5 |
| 20260905133020 | 76 | 213 | 0.0 | 0.0 | 0.00 | 0.00 | 0.00 | 23 | 989.3 |
| 20260905131503 | 75 | 215 | 0.0 | 0.0 | 0.00 | 0.00 | 0.00 | 23 | 989.4 |
| 20260905130059 | 74 | 216 | 0.0 | 0.0 | 0.00 | 0.00 | 0.00 | 23 | 989.1 |
| 20260905124538 | 73 | 216 | 0.0 | 0.0 | 0.00 | 0.00 | 0.00 | 25 | 989.0 |
| 20260905123039 | 73 | 216 | 0.0 | 0.0 | 0.00 | 0.00 | 0.00 | 29 | 988.7 |
| 20260905121522 | 73 | 216 | 0.0 | 0.0 | 0.00 | 0.00 | 0.00 | 29 | 988.6 |
| 20260905120024 | 73 | 216 | 0.0 | 0.0 | 0.00 | 0.00 | 0.00 | 33 | 988.5 |
| 20260905114520 | 74 | 216 | 0.0 | 0.0 | 0.00 | 0.01 | 0.00 | 32 | 988.4 |